sat.trackr.live / text

‹ back to catalog

STARLINK-2110

NORAD 47389 · 2021-005AS

PAYLOAD ACTIVE UNKNOWN

§ Identity

Operator
Country
US
Launch date
2021-01-20
Launch site
AFETR
Launch vehicle
Mass (kg)
RCS (m²)

Purposes: comms

External: N2YO · Heavens-Above · Gunter

§ Orbital elements

Epoch: 2026-09-19T06:03:21.400128Z

Period
93.60 min
Inclination
53.1545°
Eccentricity
0.0004764
Mean motion
15.38478656 rev/d
Perigee alt
447.4 km
Apogee alt
453.9 km
Semi-major
6,828.7 km
B*
1.0406e-3
RAAN
213.7651°
Arg perigee
60.1733°
Mean anomaly
299.9745°
Rev number
31,308

§ Raw data

STARLINK-21101 47389U 21005AS  26262.25233102  .00039923  00000+0  10406-2 0  99932 47389  53.1545 213.7651 0004764  60.1733 299.9745 15.38478656313085

JSON: /api/v1/satellites/47389 · /tle

For live sub-satellite position, see the globe view (requires WebGL).

§ Visibility from observer

Set your observer location to see the next 7 days of passes ≥ 10°. The values pass through the URL so the page stays shareable.

No JS? Fill the form by hand. The geolocation button needs JavaScript.